Budapest Ferihegy, Hungary

8:09 AM CEST on June 28, 2017 (GMT +0200)
Ferihegy

Weather History for LHBP - April, 2014

Change the Weather History Date:

Friday, April 18, 2014

  Actual Average Record
Temperature  
Mean Temperature 56 °F -  
Max Temperature 68 °F 66 °F 73 °F (2013)
Min Temperature 44 °F 44 °F 32 °F (1999)
Degree Days  
Heating Degree Days 9    
Growing Degree Days 6 (Base 50)    
Moisture  
Dew Point 40 °F    
Average Humidity 52    
Maximum Humidity 71    
Minimum Humidity 40    
Precipitation  
Precipitation 0.00 in - - ()
Sea Level Pressure  
Sea Level Pressure 29.78 in    
Wind  
Wind Speed 7 mph ()    
Max Wind Speed 10 mph    
Max Gust Speed 20 mph    
Visibility 6.2 miles    
Events Rain    
Averages and records for this station are not official NWS values.
T = Trace of Precipitation, MM = Missing Value Source: Averaged Metar Reports

Daily Weather History Graph

Daily Weather History Graph

Search for Another Location

Airport or City:

Trip Planner

Search our weather history database for the weather conditions in past years. The results will help you decide how hot, cold, wet, or windy it might be!

Date:

Astronomy

Apr. 18, 2014 Rise Set
Actual Time 5:49 AM CEST 7:36 PM CEST
Civil Twilight 5:16 AM CEST 8:08 PM CEST
Nautical Twilight 4:37 AM CEST 8:48 PM CEST
Astronomical Twilight 3:53 AM CEST 9:32 PM CEST
Moon 11:13 PM CEST (4/18) 7:46 AM CEST (4/18)
Length of Visible Light 14h 51m
Length of Day
13h 46m
Waning Gibbous, 89% of the Moon is Illuminated
Apr 18
Waning Gibbous
Apr 22
Last Quarter
Apr 29
New
May 7
First Quarter
May 14
Full

Hourly Weather History & Observations

Time (CEST) Temp. Windchill Dew Point Humidity Pressure Visibility Wind Dir Wind Speed Gust Speed Precip Events Conditions
12:00 AM 50.0 °F - 37.4 °F 62% 29.92 in - NNW 6.9 mph - N/A   Clear
12:30 AM 50.0 °F - 37.4 °F 62% 29.92 in - NNW 6.9 mph - N/A   Clear
1:00 AM 48.2 °F - 37.4 °F 66% 29.92 in - NNW 9.2 mph - N/A   Clear
1:30 AM 50.0 °F - 37.4 °F 62% 29.92 in - NNW 10.4 mph - N/A   Clear
2:00 AM 50.0 °F - 37.4 °F 62% 29.89 in - NNW 8.1 mph - N/A   Clear
2:30 AM 50.0 °F - 37.4 °F 62% 29.89 in - NNW 8.1 mph - N/A   Clear
3:00 AM 50.0 °F - 35.6 °F 58% 29.89 in - NNW 9.2 mph - N/A   Clear
3:30 AM 50.0 °F - 35.6 °F 58% 29.86 in - North 5.8 mph - N/A   Clear
4:00 AM 48.2 °F - 35.6 °F 62% 29.86 in - North 6.9 mph - N/A   Clear
4:30 AM 46.4 °F 42.9 °F 35.6 °F 66% 29.86 in - North 6.9 mph - N/A   Clear
5:00 AM 46.4 °F 45.2 °F 35.6 °F 66% 29.86 in - Variable 3.5 mph - N/A   Clear
5:30 AM 46.4 °F 43.5 °F 35.6 °F 66% 29.86 in - NNW 5.8 mph - N/A   Clear
6:00 AM 44.6 °F 40.2 °F 35.6 °F 71% 29.83 in - North 8.1 mph - N/A   Clear
6:30 AM 46.4 °F 42.4 °F 37.4 °F 71% 29.83 in - NNW 8.1 mph - N/A   Clear
7:00 AM 46.4 °F 44.3 °F 37.4 °F 71% 29.83 in - NNW 4.6 mph - N/A   Clear
7:30 AM 50.0 °F - 37.4 °F 62% 29.83 in - NNW 4.6 mph - N/A   Clear
8:00 AM 51.8 °F - 37.4 °F 58% 29.83 in - NNW 6.9 mph - N/A   Clear
8:30 AM 55.4 °F - 39.2 °F 54% 29.83 in - NNW 6.9 mph - N/A   Clear
9:00 AM 57.2 °F - 39.2 °F 51% 29.80 in - NW 8.1 mph - N/A   Clear
9:30 AM 59.0 °F - 41.0 °F 51% 29.80 in - North 6.9 mph - N/A   Clear
10:00 AM 60.8 °F - 42.8 °F 52% 29.80 in - NNW 6.9 mph - N/A   Clear
10:30 AM 60.8 °F - 41.0 °F 48% 29.77 in - North 4.6 mph - N/A   Clear
11:00 AM 62.6 °F - 42.8 °F 48% 29.77 in - NNW 8.1 mph - N/A   Clear
11:30 AM 62.6 °F - 42.8 °F 48% 29.77 in 6.2 mi NNE 5.8 mph - N/A   Partly Cloudy
12:00 PM 64.4 °F - 41.0 °F 42% 29.77 in - NW 8.1 mph - N/A   Clear
12:30 PM 64.4 °F - 41.0 °F 42% 29.74 in 6.2 mi NNE 8.1 mph 19.6 mph N/A   Scattered Clouds
1:00 PM 64.4 °F - 42.8 °F 45% 29.74 in - NNW 6.9 mph - N/A   Clear
1:30 PM 64.4 °F - 42.8 °F 45% 29.74 in - ENE 6.9 mph - N/A   Clear
2:00 PM 66.2 °F - 42.8 °F 43% 29.74 in - ENE 6.9 mph - N/A   Clear
2:30 PM 66.2 °F - 42.8 °F 43% 29.71 in - WNW 6.9 mph - N/A   Clear
3:00 PM 66.2 °F - 42.8 °F 43% 29.71 in - NNW 8.1 mph - N/A   Clear
3:30 PM 68.0 °F - 42.8 °F 40% 29.71 in - WNW 10.4 mph - N/A   Clear
4:00 PM 66.2 °F - 41.0 °F 40% 29.71 in - NE 4.6 mph - N/A   Clear
4:30 PM 68.0 °F - 42.8 °F 40% 29.71 in - NW 8.1 mph - N/A   Clear
5:00 PM 68.0 °F - 42.8 °F 40% 29.71 in - NW 9.2 mph - N/A   Clear
5:30 PM 68.0 °F - 42.8 °F 40% 29.68 in - NNW 8.1 mph - N/A   Clear
6:00 PM 66.2 °F - 41.0 °F 40% 29.68 in - North 5.8 mph - N/A   Clear
6:30 PM 66.2 °F - 42.8 °F 43% 29.71 in - North 4.6 mph - N/A   Clear
7:00 PM 64.4 °F - 42.8 °F 45% 29.71 in 6.2 mi NW 10.4 mph - N/A   Mostly Cloudy
7:30 PM 64.4 °F - 42.8 °F 45% 29.71 in - NW 10.4 mph - N/A   Clear
8:00 PM 62.6 °F - 42.8 °F 48% 29.71 in 6.2 mi NW 10.4 mph - N/A Rain Light Rain Showers
8:30 PM 60.8 °F - 42.8 °F 52% 29.71 in - NW 10.4 mph - N/A   Clear
9:00 PM 60.8 °F - 41.0 °F 48% 29.71 in - NW 10.4 mph - N/A   Clear
9:30 PM 59.0 °F - 41.0 °F 51% 29.71 in - NW 10.4 mph - N/A   Clear
10:00 PM 59.0 °F - 41.0 °F 51% 29.71 in - NW 10.4 mph - N/A   Clear
10:30 PM 59.0 °F - 39.2 °F 48% 29.71 in - NNW 10.4 mph - N/A   Clear
11:00 PM 57.2 °F - 39.2 °F 51% 29.71 in - NW 10.4 mph - N/A   Clear
11:30 PM 57.2 °F - 39.2 °F 51% 29.71 in - NW 9.2 mph - N/A   Clear